This is the latest recevied weather packets stored in our database for station/object NK7E-1. If no packets are shown the sender has not sent any weather packets the latest 10 day(s).
| Time | Temp. | Humidity | Pressure | Rain* | Wind** | Luminosity | Snow |
|---|---|---|---|---|---|---|---|
| 1777546800 | 17.22° C | 26% | 1012.6 hPa | 0 mm | - | - | - |
| 1777546200 | 17.22° C | 26% | 1012.8 hPa | 0 mm | - | - | - |
| 1777545599 | 17.22° C | 26% | 1012.8 hPa | 0 mm | - | - | - |
| 1777544999 | 17.22° C | 25% | 1013 hPa | 0 mm | - | - | - |
| 1777544400 | 17.22° C | 25% | 1013 hPa | 0 mm | - | - | - |
| 1777543798 | 18.33° C | 23% | 1012.8 hPa | 0 mm | - | - | - |
| 1777543200 | 18.89° C | 23% | 1012.8 hPa | 0 mm | - | - | - |
| 1777542600 | 18.89° C | 23% | 1013.1 hPa | 0 mm | - | - | - |
| 1777541998 | 18.89° C | 22% | 1013.3 hPa | 0 mm | - | - | - |
| 1777541400 | 18.89° C | 22% | 1013.2 hPa | 0 mm | - | - | - |
| 1777540800 | 19.44° C | 21% | 1013.4 hPa | 0 mm | - | - | - |
| 1777540199 | 18.89° C | 22% | 1013.3 hPa | 0 mm | - | - | - |
| 1777539598 | 18.89° C | 22% | 1013.3 hPa | 0 mm | - | - | - |
| 1777538998 | 19.44° C | 21% | 1013.2 hPa | 0 mm | - | - | - |
| 1777538397 | 19.44° C | 22% | 1013.5 hPa | 0 mm | - | - | - |
| 1777537798 | 19.44° C | 19% | 1013.7 hPa | 0 mm | - | - | - |
| 1777537198 | 20° C | 20% | 1013.7 hPa | 0 mm | - | - | - |
| 1777536597 | 19.44° C | 23% | 1014 hPa | 0 mm | - | - | - |
| 1777536001 | 19.44° C | 22% | 1014.2 hPa | 0 mm | - | - | - |
| 1777535401 | 20° C | 21% | 1014.1 hPa | 0 mm | - | - | - |
| 1777534801 | 20° C | 20% | 1014.5 hPa | 0 mm | - | - | - |
| 1777534201 | 20° C | 19% | 1014.5 hPa | 0 mm | - | - | - |
| 1777533601 | 21.11° C | 23% | 1014.4 hPa | 0 mm | - | - | - |
| 1777533000 | 21.11° C | 20% | 1014.3 hPa | 0 mm | - | - | - |
| 1777532404 | 21.67° C | 21% | 1014.1 hPa | 0 mm | - | - | - |
* Rain latest hour (hover to see other rain measurements)
** Current wind speed in m/s (hover to see current wind gust speed)